Regional Weather Roundup
Issued by NWS

Home | Current Version | Previous Version | Text Only | Print | Product List | Glossary On
Versions: 1 2 3 4 5 6 7 8 9 10 11 12 13 14 15 16 17 18 19 20 21 22 23 24 25 26 27
000
ASUS46 KSEW 170110
RWRWA

WASHINGTON REGIONAL WEATHER ROUNDUP
NATIONAL WEATHER SERVICE SEATTLE WA
600 PM PDT WED APR 16 2014

NOTE:"FAIR" INDICATES FEW OR NO CLOUDS BELOW 12,000 FEET WITH NO
SIGNIFICANT WEATHER AND/OR OBSTRUCTIONS TO VISIBILITY.

WAZ505-507>509-170200-
SEATTLE, TACOMA, EVERETT, AND VICINITY

CITY           SKY/WX    TMP DP  RH WIND       PRES   REMARKS
EVERETT        LGT RAIN  51  47  86 S13       30.01S FOG
BOEING FIELD   LGT RAIN  54  49  83 S9        30.02F
RENTON         LGT RAIN  52  51  97 SE5       30.02F
SEATAC AIRPORT LGT RAIN  52  49  89 S8        30.03S
JBLM-MCCHORD   LGT RAIN  52  52  99 S6        30.03S
PUYALLUP       LGT RAIN  52  50  93 S3        30.03F
JBLM-FT LEWIS  DRIZZLE   53  49  87 SE12      30.02S
TACOMA NARROWS CLOUDY    52  47  83 S9        30.02F
$$

WAZ001-503-506-510-514-515-170200-
NORTH INTERIOR

CITY           SKY/WX    TMP DP  RH WIND       PRES   REMARKS
BELLINGHAM     CLOUDY    54  46  74 S9G21     29.97F
FRIDAY HARBOR  LGT RAIN  50  48  93 SE6       29.98F
EASTSOUND      PTSUNNY   54  48  82 S8        29.96S
PORT ANGELES   LGT RAIN  51  47  86 CALM      29.97F
NAS WHIDBEY    LGT RAIN  54  49  83 SE20      29.98F
BURLINGTON     CLOUDY    52  48  87 SE8       30.01F
$$

WAZ020-022-039-040-504-511-512-170200-
SOUTHWEST INTERIOR

CITY           SKY/WX    TMP DP  RH WIND       PRES   REMARKS
SHELTON        LGT RAIN  52  49  89 S8G16     29.99F
OLYMPIA        LGT RAIN  53  49  86 S12       30.02F FOG
CHEHALIS       CLOUDY    54  50  87 S9G16     30.04F
KELSO          CLOUDY    54  45  71 SE8       30.08S
VANCOUVER      CLOUDY    56  46  69 N3        30.05F
SCAPPOOSE, OR  LGT RAIN  54  48  80 S5        30.05F
PORTLAND, OR   LGT RAIN  56  47  71 N3        30.05F
$$

WAZ021-516-517-170200-
WASHINGTON COAST

CITY           SKY/WX    TMP DP  RH WIND       PRES   REMARKS
FORKS          LGT RAIN  51  51 100 S5        29.96F FOG
HOQUIAM        LGT RAIN  52  50  93 S10       30.00F FOG
ASTORIA, OR    LGT RAIN  52  47  83 S12G20    30.02F
$$

WAZ019-023-024-040-518-519-170200-
CASCADE MOUNTAINS AND COLUMBIA GORGE

CITY           SKY/WX    TMP DP  RH WIND       PRES   REMARKS
STAMPEDE PASS  NOT AVBL
TROUTDALE, OR  CLOUDY    59  44  57 CALM      30.04F
THE DALLES, OR CLOUDY    61  42  49 NW14      30.00S
$$

WAZ026-027-041>044-520-521-170200-
EAST SLOPES

CITY           SKY/WX    TMP DP  RH WIND       PRES   REMARKS
OMAK           CLOUDY    60  34  37 SE12      29.91S
WENATCHEE      CLOUDY    62  33  33 W16G22    29.93S
ELLENSBURG     LGT RAIN  55  42  61 NW16      29.97S
YAKIMA         CLOUDY    63  37  38 SW7       29.95S
$$

WAZ028-034-035-170200-
COLUMBIA BASIN

CITY           SKY/WX    TMP DP  RH WIND       PRES   REMARKS
EPHRATA        CLOUDY    60  34  37 S10       29.94F
MOSES LAKE     CLOUDY    61  34  36 SW9       29.96F
HANFORD        NOT AVBL
PASCO          PTSUNNY   66  36  32 SW9       29.96F
HERMISTON, OR  PTSUNNY   64  38  38 W13       29.96F
$$

WAZ036>038-170200-
NORTHEAST WASHINGTON

CITY           SKY/WX    TMP DP  RH WIND       PRES   REMARKS
SPOKANE GEIGER CLOUDY    51  38  60 S9        29.97F
SPOKANE FELTS  CLOUDY    50  44  80 CALM      29.99S
FAIRCHILD AFB  CLOUDY    51  38  62 SW9       29.97S
COEURDALENE,ID CLOUDY    46  43  87 S9        30.00S
DEER PARK      CLOUDY    45  42  89 E3        29.99S
$$

WAZ029>033-170200-
SOUTHEAST WASHINGTON

CITY           SKY/WX    TMP DP  RH WIND       PRES   REMARKS
PULLMAN        CLOUDY    52  36  54 SW6       30.01F
LEWISTON, ID   CLOUDY    58  31  35 SW3       29.99F
WALLA WALLA    PTSUNNY   62  38  40 W5        29.99F
PENDLETON, OR  PTSUNNY   61  34  36 NW8       29.97F
$$



USA.gov is the U.S. government's official web portal to all federal, state and local government web resources and services.